Wind_Speed
16 18 18 18 21 19 14 4 1 3 0 3 5 4 6 7 8 8 11 5 4 3 6 8 8 7 8 10 10 12 7 3 4 5 3 5 20 29 30 32 34 33 32 29 26 24 22 22 21 22 22 22 22 22 23 22 21 19 17 15 15 17 18 18 17 16 15 15 15 14 15 15 15 15 15 15 15 15 14 13 13 13 12 11 11 12 12 12 12 11 11 11 11 11 11 11 11
16 16 16 17 18 9 3 1 1 3 3 4 5 4 8 8 8 9 7 5 4 1 6 8 7 7 14 15 12 13 9 5 7 5 5 20 28 27 32 33 35 34 32 30 27 26 24 23 22 22 22 23 23 23 23 22 22 20 17 16 18 20 19 18 17 16 16 15 15 14 14 15 15 15 15 15 15 14 13 13 12 13 12 11 11 11 11 12 11 10 10 11 11 11 11 10 10
14 14 16 16 11 2 1 2 0 3 3 5 5 6 8 8 10 8 4 7 3 3 6 6 7 5 10 11 8 9 6 5 12 8 9 24 20 21 34 34 35 34 32 31 28 27 25 23 23 23 23 24 24 23 23 23 22 20 19 19 20 20 19 18 17 16 16 15 15 15 14 14 14 15 15 15 14 13 13 12 11 12 11 11 11 10 11 11 10 9 10 11 11 10 10 10 9
12 11 14 11 5 3 2 1 2 3 3 5 5 8 10 9 12 8 4 3 4 5 4 5 5 1 3 10 9 9 8 7 13 12 8 17 20 26 35 34 35 33 32 31 28 28 25 24 23 23 23 24 24 24 24 23 22 21 20 21 21 20 19 18 17 17 16 15 15 14 14 14 14 14 14 14 14 13 13 12 11 11 10 10 10 10 10 10 9 9 10 10 10 10 10 9 9
11 10 12 6 1 2 1 0 2 2 4 5 4 8 12 11 12 11 7 4 2 5 4 4 1 1 5 10 7 6 9 8 13 15 13 20 30 34 35 35 35 32 32 31 29 28 26 25 24 24 24 24 25 24 24 23 22 22 22 22 21 20 19 18 17 17 16 15 15 14 14 14 13 12 13 13 12 12 12 12 11 10 9 9 10 9 9 9 9 9 10 10 9 10 10 10 10
9 11 11 5 1 2 1 1 3 4 5 6 6 9 15 14 13 16 13 7 1 4 6 4 2 5 7 4 3 5 12 13 13 15 21 29 36 36 36 35 33 31 32 31 29 28 27 25 24 24 24 24 25 25 25 24 24 23 23 23 22 21 19 18 17 16 16 15 14 14 13 12 12 12 12 11 10 10 11 11 10 8 7 8 9 8 7 8 9 9 9 9 9 10 11 10 10
7 7 5 2 1 2 2 3 5 5 6 7 9 10 16 18 14 15 16 9 2 2 4 3 3 7 5 4 5 5 14 16 15 20 30 38 39 38 37 34 32 31 31 31 29 29 28 26 26 25 24 25 26 27 26 25 25 24 24 23 22 21 19 18 17 16 16 15 14 13 12 12 11 11 10 9 9 9 9 9 9 8 8 8 8 7 6 8 8 8 9 9 9 10 11 10 10
8 3 1 1 1 2 3 4 5 5 6 8 11 12 16 19 16 13 15 13 5 2 1 2 5 5 3 6 5 6 16 19 21 31 40 42 41 39 36 35 34 32 31 32 30 29 28 27 26 25 25 26 27 27 26 26 25 25 23 22 21 20 19 18 17 16 16 15 14 12 11 11 11 10 9 8 8 8 8 8 8 8 8 8 8 6 6 7 7 7 8 8 9 9 10 10 10
7 4 1 1 2 3 4 4 5 6 7 9 11 12 15 16 17 13 14 16 9 7 7 6 6 6 5 9 8 6 18 28 34 38 41 41 40 38 36 36 36 33 31 32 31 30 28 27 26 26 26 26 27 27 26 26 26 25 23 21 21 19 19 18 17 17 16 15 13 12 11 10 9 8 8 8 8 8 8 8 8 8 8 7 7 5 6 7 7 7 7 7 8 9 10 10 10
3 4 2 2 3 4 5 5 6 6 9 10 11 15 14 12 15 14 14 15 10 10 6 5 4 9 10 9 7 5 19 36 39 35 37 39 38 36 34 35 35 34 32 32 31 30 29 28 27 27 26 26 27 27 27 27 26 25 22 21 20 19 18 18 18 17 16 14 12 11 10 9 8 6 6 6 7 7 8 8 8 8 8 7 6 5 5 7 7 6 6 7 7 8 9 9 9
1 3 3 3 4 5 5 4 6 6 9 10 11 14 13 13 14 15 16 13 13 12 1 5 4 12 12 7 4 10 25 34 35 33 35 36 34 34 35 35 33 32 32 32 31 30 29 28 27 27 26 27 27 28 29 28 26 24 22 21 20 19 18 18 18 17 15 14 12 11 9 8 6 5 5 5 5 6 7 8 8 9 9 7 7 5 4 6 7 7 6 6 7 7 8 9 8
2 3 3 4 5 5 5 5 7 8 9 9 10 11 10 13 15 15 16 14 16 11 5 5 5 12 11 7 4 12 24 28 32 33 32 32 33 36 37 35 31 31 32 31 31 30 28 27 27 26 26 27 29 30 29 28 26 24 22 21 20 18 18 18 18 16 15 13 12 10 9 7 5 5 4 5 5 5 6 7 8 8 9 8 8 7 5 7 8 8 7 6 7 7 7 7 7
3 4 4 5 5 5 7 7 7 8 9 8 9 11 11 12 14 14 15 14 12 6 6 4 5 11 8 6 4 8 15 23 32 32 31 33 35 38 37 35 33 33 33 31 31 30 28 27 26 25 26 28 30 30 28 27 25 23 22 21 19 18 18 18 17 16 14 13 11 10 8 6 5 5 5 5 5 5 6 6 6 7 7 8 8 9 7 8 9 8 7 6 6 6 6 6 6
5 3 4 4 4 6 7 6 7 8 7 7 9 13 14 12 13 13 12 8 4 3 3 7 12 14 8 7 5 4 10 23 31 30 33 35 37 38 36 36 35 34 33 31 31 29 28 26 26 26 26 28 29 28 27 25 24 22 21 21 19 18 18 17 17 16 14 12 11 9 7 6 5 5 5 5 5 6 6 6 5 5 6 6 7 9 9 9 10 9 7 6 6 6 5 5 4
6 2 3 3 4 5 6 6 7 8 6 7 10 11 13 13 10 4 3 2 3 2 2 6 8 9 10 11 8 7 15 27 29 31 35 35 36 36 35 35 34 33 32 31 30 28 26 25 26 26 27 28 28 28 27 24 23 22 21 20 19 18 18 17 17 15 13 11 10 8 7 6 6 6 5 5 4 4 5 6 5 5 5 5 6 8 9 10 10 10 7 6 5 5 5 4 3
5 3 3 4 6 7 6 6 7 8 6 7 11 12 14 15 8 1 1 3 1 2 5 2 2 5 12 12 14 17 23 29 28 32 35 34 34 33 33 32 30 30 29 30 29 27 25 24 26 26 26 27 27 27 26 24 22 21 21 19 18 18 18 17 16 14 12 10 9 8 7 7 7 7 6 5 4 3 4 6 5 5 5 5 5 7 9 10 10 10 7 5 4 4 3 3 3
4 4 5 6 7 8 6 6 6 6 6 7 10 11 12 13 6 4 4 6 3 4 6 4 6 5 10 15 25 31 32 31 29 33 32 30 30 28 28 27 27 27 27 28 27 27 25 25 26 26 26 26 26 27 25 24 21 21 20 19 18 18 17 16 15 13 12 11 10 8 7 7 7 8 7 5 5 5 5 6 6 6 6 5 4 5 7 10 10 9 7 5 4 3 3 2 2
5 4 6 8 7 8 7 8 8 6 8 8 11 12 12 11 6 3 2 6 5 6 4 4 9 8 15 25 33 35 35 34 30 31 28 24 24 22 22 23 26 26 25 25 26 27 26 26 26 25 26 25 25 25 25 24 22 21 20 19 18 18 17 16 14 13 12 11 10 8 7 7 8 8 7 6 6 7 7 6 6 6 7 6 5 4 4 7 8 8 7 6 5 4 4 3 3
6 4 6 9 8 8 7 10 9 8 11 9 10 12 12 9 4 3 2 4 5 6 1 6 12 11 19 26 31 33 34 31 27 28 25 22 21 19 20 21 24 25 26 26 26 28 27 27 25 25 26 25 25 24 25 24 23 22 20 20 19 18 17 15 14 13 13 11 9 8 8 7 7 6 5 4 3 5 5 6 4 5 7 7 6 5 5 4 4 6 7 6 6 6 6 5 4
7 5 7 9 9 8 9 11 11 11 12 11 12 6 3 5 1 0 3 6 4 5 4 7 13 14 18 19 25 29 29 25 24 26 23 21 21 21 23 22 24 26 26 27 28 28 28 27 25 25 26 25 25 24 25 24 23 22 21 20 19 19 17 16 14 13 12 11 9 8 8 8 7 5 4 1 3 4 3 4 4 4 6 7 6 7 7 6 3 1 4 4 4 6 7 7 5
6 7 9 8 8 9 12 13 13 14 12 11 13 5 1 4 2 3 3 5 1 1 4 8 16 17 18 18 20 24 23 20 22 24 22 21 22 24 26 25 25 26 26 27 30 30 28 28 27 26 26 26 25 25 25 25 23 21 21 20 19 19 17 16 14 12 12 11 9 8 9 9 8 6 4 2 3 2 1 2 3 3 4 5 6 5 5 5 5 3 1 1 2 4 5 6 5
6 10 12 9 7 9 12 13 15 16 14 13 14 8 3 1 2 4 2 2 3 5 5 9 20 19 20 20 19 20 18 17 19 21 21 21 22 22 23 25 25 23 25 28 30 31 29 29 29 28 27 26 25 24 26 26 22 21 21 19 19 18 17 15 13 12 12 10 9 8 8 9 10 8 4 2 2 1 2 2 1 1 1 2 4 2 2 3 3 2 2 3 4 4 3 3 4
8 9 11 11 11 12 9 10 14 14 13 14 12 8 4 4 3 4 1 3 4 5 4 9 21 20 21 21 19 19 18 17 18 20 22 22 21 19 22 25 20 16 22 29 30 30 30 30 30 30 28 27 25 24 26 26 21 20 19 17 18 18 17 15 14 13 12 10 8 7 8 10 11 7 5 3 3 5 5 5 4 3 3 2 2 3 4 6 6 5 7 8 8 7 7 6 7
12 10 10 11 13 15 12 12 16 13 11 11 5 4 3 2 3 1 3 6 4 4 5 9 20 17 19 18 17 18 17 17 16 20 24 25 25 21 23 25 21 16 16 24 28 28 29 31 32 31 29 27 25 24 27 27 22 21 19 17 17 16 16 16 15 14 12 12 10 9 10 10 10 7 6 6 5 7 7 5 4 4 4 2 2 5 6 7 7 7 8 8 7 8 8 8 9
14 13 11 10 11 13 13 13 18 17 11 10 5 2 4 3 3 2 4 8 4 5 2 11 21 17 17 17 18 17 14 15 15 18 21 22 23 20 22 24 23 20 17 17 20 24 29 32 32 30 29 27 25 26 28 27 24 24 21 19 18 16 16 15 15 15 13 13 11 10 10 9 9 7 8 9 7 8 8 7 5 5 4 3 3 4 5 6 6 7 8 8 8 8 8 9 10
12 13 12 11 11 11 12 13 18 17 9 8 9 6 3 3 6 5 5 7 4 3 2 9 20 18 16 15 16 16 15 14 14 17 19 20 20 19 22 23 21 21 24 22 18 22 29 31 31 30 28 26 25 27 28 26 26 26 23 20 19 18 16 14 15 16 15 15 12 9 7 8 8 7 9 9 9 10 10 10 8 7 6 5 5 4 4 5 6 6 8 9 9 10 9 10 11
9 12 13 14 13 11 12 12 14 14 9 8 8 6 4 1 1 5 4 5 6 4 4 5 17 18 16 16 14 14 15 15 17 20 19 18 18 18 20 22 21 21 28 33 26 24 28 30 30 29 28 27 26 27 26 25 25 24 23 20 18 18 16 15 16 16 16 15 13 10 7 9 9 7 8 9 10 11 10 10 9 7 6 4 4 4 4 5 7 7 7 9 9 10 11 11 13
10 12 13 16 15 11 12 13 12 10 8 8 8 5 5 4 6 8 6 5 6 6 8 7 10 16 15 16 13 11 11 15 20 21 18 18 19 21 23 24 26 26 29 38 36 29 29 30 29 28 28 26 27 26 22 22 23 23 23 19 15 16 15 16 16 15 15 13 10 9 7 10 10 7 7 10 10 11 10 10 9 7 6 4 3 4 5 6 7 7 8 9 9 10 11 13 13
12 13 10 13 16 14 15 14 13 8 5 7 7 6 7 8 8 8 8 7 7 7 9 10 5 13 14 14 13 9 10 15 19 19 20 21 22 25 27 28 30 30 29 33 37 33 31 30 28 27 27 26 27 24 18 20 23 23 22 18 14 13 14 16 15 14 12 10 7 7 7 9 10 8 8 9 9 10 9 9 9 7 6 5 4 4 5 7 8 9 8 8 9 9 11 12 12
11 12 8 8 10 13 15 13 13 10 6 4 6 6 7 8 9 8 7 8 9 8 9 10 3 11 11 10 10 8 8 8 10 14 20 23 24 25 27 28 28 28 26 27 31 34 32 30 28 28 26 26 25 20 17 21 22 21 20 17 14 12 14 16 13 11 11 10 9 6 6 9 8 8 9 9 9 9 8 9 8 7 6 6 6 5 6 8 8 7 6 7 8 9 11 12 12
8 10 7 6 5 6 10 12 13 12 8 5 6 5 6 6 8 10 10 10 10 12 12 5 6 10 9 10 10 8 8 10 11 9 7 12 16 17 16 18 24 26 26 25 28 32 31 30 30 29 27 26 22 18 20 21 20 20 20 18 15 13 15 15 12 12 13 14 14 11 10 9 6 7 9 8 8 9 8 7 7 5 5 5 5 4 5 7 5 5 6 8 9 10 10 10 10
6 8 7 6 5 3 6 9 12 11 8 7 8 5 5 7 9 10 12 12 12 13 8 7 14 13 12 12 10 9 8 11 15 16 14 9 6 7 2 5 17 23 24 25 29 31 29 29 30 29 27 25 20 19 22 20 18 20 18 16 15 14 15 16 15 15 16 17 17 15 14 12 9 6 7 9 9 9 8 7 7 4 3 3 2 1 4 5 4 6 7 8 10 10 10 10 10
6 6 5 5 6 4 4 6 10 13 10 8 11 7 3 6 9 10 11 12 15 9 7 14 15 15 14 11 8 9 7 8 11 12 11 8 5 7 3 7 9 10 17 25 27 28 28 29 29 29 26 22 20 23 22 19 19 19 18 18 17 16 18 19 18 16 17 16 15 13 13 12 11 9 7 8 9 10 10 8 6 3 1 2 1 2 4 4 5 7 7 8 9 9 10 11 10
5 4 4 5 6 6 5 5 7 14 14 10 12 10 7 7 8 11 11 11 14 7 13 14 13 14 13 11 10 10 9 8 6 9 10 4 6 8 11 15 3 10 6 14 17 20 24 27 29 28 25 22 24 26 23 22 21 19 21 23 21 19 18 19 18 17 16 14 13 13 13 12 10 8 7 6 8 11 11 7 3 1 2 3 5 5 4 5 5 7 8 8 8 9 11 10 11
5 5 4 4 6 7 8 7 6 12 17 14 12 11 12 11 8 10 11 9 10 10 13 12 14 15 12 11 11 9 10 10 9 13 13 12 14 9 13 19 7 4 2 6 10 14 18 25 28 26 24 24 25 26 25 23 21 19 22 23 21 19 17 17 18 17 15 13 12 12 12 12 10 6 3 2 6 9 10 7 2 3 5 5 6 4 5 6 5 6 8 9 8 9 10 10 11
8 7 6 6 6 7 8 10 9 11 14 15 13 9 12 14 12 12 8 2 9 11 13 11 11 12 11 11 10 10 11 10 12 16 16 18 19 14 17 19 14 13 12 9 10 14 19 24 26 25 24 25 25 24 25 24 21 20 20 20 19 18 16 16 17 16 13 12 12 11 10 11 9 6 2 1 4 6 10 10 4 2 3 2 3 3 4 6 5 6 8 9 10 10 10 11 11
11 8 8 10 8 7 8 10 13 13 11 14 15 11 12 14 13 14 5 12 13 11 11 10 11 11 11 12 11 12 11 9 13 17 16 20 20 18 19 18 18 20 18 15 11 14 22 25 27 26 25 26 25 24 27 25 23 22 21 20 18 17 16 16 16 15 14 13 13 11 11 10 10 9 5 3 1 5 8 7 3 3 3 1 2 3 4 5 6 7 8 9 10 10 11 11 11
13 8 8 10 9 9 11 11 13 13 9 11 16 14 13 12 12 13 8 14 12 12 12 11 11 10 9 13 13 11 9 7 10 12 12 16 18 20 22 20 22 23 23 21 14 15 23 26 28 27 25 27 26 26 28 25 22 22 22 20 18 17 16 16 16 16 14 12 12 11 11 11 11 12 9 6 2 4 4 3 2 2 2 1 1 2 4 5 6 6 7 9 8 10 11 11 11
12 8 6 6 8 9 11 14 15 11 7 8 16 14 11 12 10 7 11 13 12 14 16 16 15 12 11 13 13 11 10 9 10 10 12 16 18 24 28 25 24 25 27 26 19 19 24 27 27 26 26 29 27 27 27 23 21 20 20 19 19 17 16 16 16 15 14 13 12 12 11 11 12 13 11 8 5 3 2 2 1 3 4 3 3 4 4 5 6 6 7 9 8 9 10 10 11
10 8 6 5 6 7 8 13 15 11 8 9 14 12 9 11 4 4 8 11 11 10 11 14 15 16 15 13 13 14 14 12 11 11 11 15 19 23 26 25 25 25 26 26 25 25 26 26 25 26 28 28 27 26 24 23 21 19 18 19 18 17 16 16 15 14 14 13 13 12 10 11 13 12 11 9 7 5 2 2 4 7 7 6 6 5 5 6 6 6 7 8 8 8 10 11 11
10 10 8 6 9 9 7 9 10 9 9 10 13 9 7 8 4 7 4 7 10 8 7 8 9 12 13 12 11 13 15 14 13 13 12 13 16 19 23 26 28 28 28 29 31 32 29 25 24 27 27 24 24 25 23 22 21 20 19 18 17 16 15 14 15 14 13 12 12 11 10 10 10 10 10 9 8 8 8 7 7 7 7 6 6 6 7 7 6 6 6 7 8 9 10 11 11
9 12 11 10 12 12 9 9 7 4 5 7 10 7 6 5 8 8 5 7 9 7 8 9 8 10 12 11 11 11 12 13 13 13 12 12 12 15 20 25 27 28 29 31 34 33 28 24 25 27 24 21 21 22 22 21 21 22 23 21 19 17 15 15 16 16 14 13 12 10 10 9 9 9 10 10 10 11 12 10 8 6 6 6 6 7 7 7 6 6 6 6 8 8 9 10 11
7 10 11 12 15 15 13 11 7 4 4 7 7 7 4 3 7 9 9 11 10 9 8 9 9 11 11 11 12 12 11 10 10 8 8 10 12 12 16 21 24 25 27 31 29 25 24 23 25 26 23 19 19 20 20 20 21 22 23 23 20 18 17 16 15 15 14 13 13 11 11 12 14 13 12 13 13 11 10 9 8 7 5 5 5 6 7 7 6 7 7 7 7 8 10 11 11
6 8 10 12 15 17 16 11 7 4 6 8 8 7 3 3 4 9 13 13 11 10 9 8 8 8 10 12 12 13 13 11 10 8 7 8 10 11 13 16 19 19 21 23 17 16 19 20 22 24 22 19 19 20 20 20 20 21 22 20 18 17 18 17 15 15 14 14 13 13 14 15 16 15 12 11 10 7 6 7 7 5 4 4 4 6 7 6 6 7 7 7 7 8 11 12 12
7 8 11 12 13 16 15 9 6 4 6 6 8 7 5 3 2 7 11 12 10 10 11 10 10 9 9 10 11 12 12 11 11 9 7 7 8 10 12 15 15 14 15 15 13 14 17 17 18 21 21 19 19 20 19 19 20 20 21 20 18 17 17 17 16 16 17 16 16 16 17 16 15 12 8 6 6 5 4 4 5 4 4 4 5 6 7 6 7 7 8 9 9 10 11 13 13
7 9 11 12 12 12 11 8 4 3 4 7 8 7 5 2 3 7 7 9 10 10 10 11 11 11 10 9 10 11 11 10 10 9 8 9 11 12 16 17 17 17 19 20 17 17 18 16 17 18 19 18 18 19 20 20 21 20 21 21 19 18 17 18 19 19 20 20 20 20 17 15 12 10 8 6 5 4 3 4 4 3 4 5 5 6 6 7 7 8 8 9 11 12 13 13 13
9 11 10 10 11 7 6 5 1 1 4 6 10 11 8 2 3 8 8 9 13 12 10 10 11 11 11 11 11 11 10 9 10 10 8 10 15 18 20 18 15 18 22 24 22 20 19 18 19 17 16 15 15 17 20 20 20 19 20 19 19 19 19 20 21 21 20 21 21 19 16 15 13 11 10 8 6 4 3 3 3 3 4 4 6 7 7 8 8 7 7 8 11 13 13 13 13
9 9 7 7 6 3 3 3 2 2 5 5 9 11 10 5 5 8 12 13 16 16 14 15 15 14 13 12 11 10 9 9 10 11 8 10 14 16 19 19 17 18 22 25 24 25 22 20 20 17 15 15 14 15 18 18 17 16 17 17 18 19 19 19 19 20 21 22 21 19 18 17 15 13 11 9 7 4 2 2 3 3 4 5 6 7 7 8 7 7 8 9 11 12 13 14 15
9 8 6 5 4 3 5 4 1 4 4 6 10 10 7 6 6 7 13 16 17 17 17 19 19 17 15 13 12 10 8 9 10 10 9 9 10 12 17 20 19 19 23 24 23 26 25 21 21 19 18 17 14 15 16 16 15 16 17 18 18 18 18 19 21 23 23 23 22 21 20 19 16 14 12 10 8 5 2 3 4 4 5 6 7 6 6 8 7 7 9 10 11 13 14 15 15
10 9 6 5 4 5 5 3 1 2 4 7 8 8 4 3 5 7 13 19 20 18 17 20 21 20 18 14 12 10 9 10 9 9 10 9 9 13 17 20 20 19 21 22 22 27 28 25 22 20 19 17 16 16 17 17 17 17 17 18 18 18 20 21 23 24 23 21 21 21 20 19 17 15 12 11 8 5 4 5 7 8 7 7 7 7 8 10 9 9 10 11 12 14 14 14 15
9 9 5 4 3 5 5 2 2 3 4 4 3 5 3 3 6 8 13 18 17 14 12 14 17 16 15 13 12 11 9 9 9 10 11 10 12 16 18 19 19 18 21 23 25 28 29 26 23 21 20 18 18 19 20 20 20 20 20 21 21 21 22 22 21 21 20 20 19 19 19 16 15 14 11 10 9 9 9 9 10 10 8 9 10 10 11 12 12 12 12 12 13 15 15 15 16
7 7 5 6 4 4 4 3 4 3 1 2 2 2 2 3 5 4 9 15 14 14 12 12 13 12 13 12 11 12 10 9 10 11 10 11 14 18 20 18 17 19 23 25 25 25 26 27 24 22 21 20 20 21 22 23 23 23 23 22 22 21 21 21 20 19 18 18 17 17 17 15 13 12 11 11 11 12 11 10 9 9 9 11 12 11 11 12 12 12 12 13 14 15 16 17 17
5 6 6 6 4 3 5 2 1 4 2 3 2 1 3 1 5 6 10 16 12 14 16 15 15 15 14 13 12 12 11 11 11 9 10 12 14 17 20 21 21 22 23 23 23 23 26 28 26 23 23 22 22 23 24 24 23 23 21 20 20 19 19 19 18 18 17 16 16 15 15 13 12 11 12 13 12 11 9 9 9 10 11 12 11 10 10 11 12 12 13 15 14 14 16 17 17
5 6 5 3 5 3 4 3 0 3 2 3 2 3 1 3 3 3 12 18 12 14 16 15 15 16 14 13 13 13 13 11 9 10 11 13 15 17 20 23 23 22 22 24 25 26 28 28 26 25 24 23 23 23 23 23 22 22 21 19 18 18 17 17 17 17 17 16 15 13 11 11 11 11 12 13 11 9 8 8 9 11 11 11 11 12 12 12 12 13 14 15 15 15 16 17 18
4 5 4 3 3 4 1 3 4 4 3 2 3 6 4 4 4 2 11 16 14 14 16 16 15 14 13 13 13 13 12 10 9 11 12 12 14 17 20 21 22 22 23 24 27 29 29 27 26 26 25 23 23 22 21 21 21 20 19 18 18 18 18 18 18 17 16 16 15 14 13 13 12 12 12 11 10 9 9 9 10 11 11 11 12 13 12 13 14 14 15 15 16 16 16 18 19
4 4 6 5 4 3 2 3 4 5 4 2 3 5 4 3 5 7 10 13 15 15 14 16 16 14 13 12 12 12 11 10 10 12 12 12 14 17 20 22 23 24 24 24 29 32 29 27 27 26 24 23 22 21 20 19 19 18 18 17 18 19 19 19 18 17 16 16 15 15 16 15 13 12 11 10 10 10 10 10 10 10 10 11 11 12 13 13 14 15 15 16 17 17 18 19 19
4 5 7 7 4 3 3 1 2 4 5 4 3 3 5 4 2 6 11 13 15 17 15 15 15 15 15 13 13 12 11 11 12 12 12 12 14 18 21 23 25 25 25 26 30 32 29 27 27 26 25 23 22 20 19 18 17 17 18 19 20 20 20 20 20 20 20 19 18 17 16 15 14 12 11 11 11 11 11 11 11 10 9 9 9 11 12 13 14 16 16 17 18 18 19 18 18
5 5 5 5 5 4 3 1 3 3 4 4 5 3 6 4 4 3 9 13 14 17 17 14 14 16 15 13 13 13 12 13 13 13 13 12 14 19 20 22 24 24 25 28 31 31 29 27 26 26 25 24 22 21 18 17 18 19 20 21 21 21 21 20 21 21 21 20 18 16 14 14 13 13 13 13 13 13 12 11 10 9 8 8 9 11 12 13 15 18 18 17 17 17 18 18 19
Wind_Direction
317 319 323 328 323 327 324 320 45 302 275 276 266 264 272 272 275 274 284 315 34 2 64 72 74 64 84 97 97 84 75 132 151 155 193 129 123 138 150 149 148 149 146 145 145 143 143 142 140 140 141 141 140 140 142 144 144 142 138 134 132 132 132 133 131 127 126 124 121 120 119 119 117 116 114 113 112 111 110 108 106 104 102 99 98 97 94 93 92 88 80 71 69 69 72 76 72
317 321 324 330 327 331 307 325 38 295 333 294 272 266 269 284 287 278 301 38 72 143 84 84 83 88 108 112 102 79 55 61 113 122 116 119 118 133 146 148 150 149 146 145 146 144 144 145 143 142 143 144 143 142 143 145 145 144 140 137 137 136 134 134 133 131 129 127 125 123 123 123 120 118 117 116 115 113 110 108 108 106 104 102 101 99 95 94 91 86 79 69 64 64 67 74 75
318 323 327 336 336 331 265 329 290 278 306 281 279 277 278 291 286 293 26 79 106 89 82 79 71 102 128 116 98 96 100 98 113 112 120 126 120 136 146 149 151 149 146 146 147 146 146 146 145 144 146 148 148 145 144 144 145 145 142 140 140 139 138 137 135 134 131 128 127 126 127 125 124 122 120 119 117 116 112 110 110 108 107 107 104 102 100 96 93 87 78 68 63 62 63 69 75
315 319 322 336 347 335 9 348 229 246 261 260 273 274 280 280 277 296 42 108 136 80 52 52 60 246 131 110 106 104 124 134 131 130 129 134 135 143 147 149 148 145 144 147 148 148 147 147 147 147 149 151 151 149 146 145 147 146 145 144 144 144 142 140 138 136 134 133 131 130 131 129 128 125 126 127 126 125 122 119 117 115 112 109 105 105 105 99 95 90 79 68 65 66 64 64 70
305 310 305 303 346 323 66 292 253 231 240 254 268 277 280 277 288 306 338 337 104 94 98 87 104 257 69 109 125 120 133 137 142 135 118 128 139 145 148 147 145 142 143 148 150 149 148 149 149 148 150 152 152 150 148 148 149 148 148 147 147 147 144 142 140 138 137 136 136 135 135 136 132 126 131 134 133 133 131 129 125 119 112 108 108 109 108 100 95 91 80 70 70 70 64 61 73
301 315 297 252 236 307 99 247 256 254 242 256 276 282 285 288 303 308 317 320 152 108 116 115 147 98 71 86 79 130 144 138 147 138 126 134 143 146 147 144 142 141 145 149 150 150 149 151 151 150 150 151 151 150 149 150 151 151 150 150 149 148 146 144 141 141 140 138 138 139 141 141 133 129 136 139 137 137 137 138 131 120 110 108 109 109 104 98 97 90 80 74 75 72 64 63 83
304 322 301 210 281 290 151 218 230 251 240 244 263 274 285 290 297 300 305 296 226 57 70 84 122 99 96 111 63 109 132 134 144 140 139 141 143 144 144 143 141 142 148 151 151 151 151 153 153 152 151 149 149 150 151 151 151 152 152 151 149 148 147 145 145 143 141 140 140 142 142 138 136 137 142 145 145 144 144 144 141 130 112 107 112 114 112 105 104 95 82 80 79 74 67 67 93
284 281 308 112 309 253 189 229 228 240 239 234 246 256 269 278 284 286 292 286 268 283 268 143 130 104 112 120 105 115 115 127 134 135 141 140 140 141 143 144 142 145 151 151 152 152 152 154 155 153 151 149 150 151 153 153 153 154 153 151 149 149 148 148 147 145 143 144 145 145 142 139 142 145 148 152 154 153 153 154 153 144 130 127 130 131 134 120 110 104 89 84 83 78 71 73 101
262 220 287 263 237 260 236 243 244 249 260 261 262 260 257 266 274 273 275 277 275 271 241 189 145 120 113 98 104 111 110 125 129 131 138 138 140 141 144 146 144 147 150 151 152 152 153 155 155 154 153 152 153 154 155 154 154 155 153 150 150 150 150 150 148 146 146 147 147 146 142 142 145 148 153 156 161 165 164 166 165 163 161 158 153 148 144 136 123 115 99 88 88 81 74 77 104
245 197 212 230 212 247 246 242 251 254 260 265 269 270 270 270 275 277 272 272 279 282 246 175 127 118 115 93 89 101 118 127 127 129 137 137 140 142 144 144 145 149 150 151 152 152 153 155 157 157 157 157 157 157 156 155 156 156 154 152 152 152 152 152 149 148 149 149 147 143 140 140 142 147 157 162 168 175 176 179 181 180 186 185 179 176 147 145 144 129 111 98 93 86 78 78 104
215 208 191 226 228 231 235 236 245 250 254 257 260 264 272 276 280 281 277 281 283 282 198 105 102 113 106 90 78 102 118 126 128 131 138 140 142 143 142 142 148 152 151 151 151 153 154 156 159 160 160 160 160 158 157 158 158 157 155 155 154 154 154 153 151 152 152 149 144 139 137 135 137 146 155 163 165 173 181 187 192 192 198 198 195 199 162 155 160 144 126 112 100 92 82 79 102
204 218 176 215 222 222 230 235 245 252 254 255 258 257 259 265 268 270 272 273 269 265 136 147 146 115 104 97 105 111 116 126 131 134 141 143 142 141 141 143 149 151 152 152 150 152 153 157 160 161 162 161 160 158 159 160 160 157 155 156 155 155 157 155 153 152 151 147 142 139 136 133 127 134 141 148 148 157 169 179 190 196 204 205 206 206 181 166 167 155 140 125 111 99 89 82 96
203 208 179 216 213 214 231 236 246 253 255 253 261 265 265 263 259 263 266 267 269 246 151 163 115 102 105 104 110 116 121 135 135 134 139 139 138 139 140 143 146 149 152 152 150 151 153 155 158 159 160 159 159 159 161 161 160 157 157 158 155 158 159 156 155 152 149 145 141 139 133 126 116 123 131 134 132 135 146 156 169 179 191 200 205 202 187 174 172 166 152 138 124 108 99 88 91
205 211 194 226 222 215 228 233 235 242 249 244 250 258 263 265 260 264 262 273 324 221 155 106 103 98 112 123 127 134 140 147 138 132 134 133 135 137 138 140 143 147 149 150 149 150 152 155 158 158 158 158 159 160 161 160 159 158 159 159 158 161 159 156 155 151 149 145 140 137 126 116 112 115 119 121 119 120 126 131 140 145 161 175 186 190 185 177 174 173 162 150 133 118 108 100 102
206 213 219 241 246 230 226 227 231 240 241 230 240 248 256 259 250 272 259 216 80 195 76 97 111 108 148 155 156 170 154 149 138 131 131 131 133 134 136 139 140 142 144 147 148 150 153 156 159 159 160 159 160 160 159 159 160 160 160 160 161 163 158 157 155 151 150 144 138 133 125 119 114 110 107 107 104 105 112 113 122 127 137 152 164 175 179 177 177 179 173 163 143 128 120 109 124
202 203 228 241 239 237 227 228 237 244 242 224 233 236 246 253 233 181 168 130 83 351 34 27 353 116 164 159 151 156 152 150 138 132 131 128 130 130 133 136 136 140 143 146 147 150 154 159 162 161 161 161 161 160 157 158 160 160 161 162 163 162 159 158 154 151 148 141 140 139 134 130 121 115 105 99 89 71 81 82 84 99 117 137 153 170 177 179 183 185 181 175 162 145 139 125 143
198 198 225 236 230 232 221 221 234 243 254 247 249 241 244 256 236 204 160 107 83 35 29 343 359 80 150 145 146 146 149 153 141 133 132 129 129 129 132 134 136 140 144 147 148 151 156 162 164 163 163 163 163 161 158 157 159 161 162 163 164 162 160 158 155 151 148 146 149 145 138 129 125 120 105 98 84 55 49 52 51 63 84 103 132 165 178 184 189 192 192 192 194 184 183 171 176
205 193 217 233 226 225 216 223 235 242 256 256 262 262 262 256 218 199 108 88 87 67 23 17 33 65 123 134 140 141 149 156 146 138 137 134 133 133 136 138 141 145 149 152 153 155 160 161 162 164 166 164 164 164 162 160 161 163 163 163 164 163 162 158 157 155 153 156 155 150 140 127 126 125 106 102 83 55 44 40 48 58 74 82 93 130 168 188 196 199 202 209 213 226 236 243 261
217 194 210 228 224 226 225 235 242 245 253 254 259 264 274 269 198 183 136 113 107 105 136 80 74 91 115 129 136 141 153 159 152 143 140 139 138 136 139 145 148 152 156 156 157 162 161 158 162 166 166 165 166 168 167 165 164 165 164 165 165 164 163 161 162 161 160 161 158 156 153 138 132 129 107 103 58 35 35 38 59 69 73 73 77 98 112 141 189 209 216 226 234 249 257 266 286
222 206 221 226 218 234 243 247 252 250 256 265 268 265 278 291 34 319 137 131 120 129 180 115 112 127 127 135 140 146 156 159 153 146 140 138 139 143 149 154 156 159 161 158 160 164 160 158 167 167 164 166 168 170 170 168 167 166 165 165 165 164 167 167 166 166 165 162 156 159 163 153 149 146 129 152 328 352 21 49 81 90 76 65 70 97 99 87 68 214 221 232 257 270 270 272 277
219 215 229 226 202 223 237 246 259 261 267 268 267 264 218 297 353 321 79 105 107 189 230 146 139 145 141 146 146 151 159 157 149 143 140 142 148 154 156 157 158 163 163 160 162 164 161 164 169 167 167 168 169 171 171 169 167 167 167 167 166 168 173 171 167 168 167 162 154 157 158 153 164 170 164 231 294 315 256 49 76 97 89 66 65 96 99 69 44 41 194 208 315 307 290 278 268
233 232 234 233 216 227 227 231 245 252 262 261 265 269 226 296 303 283 75 126 215 220 252 141 146 156 153 153 151 155 159 154 145 142 147 153 157 152 149 154 158 165 163 161 164 164 165 169 170 168 170 169 170 173 172 168 165 166 169 169 170 175 177 170 166 168 169 164 155 156 159 161 174 184 200 234 284 269 252 289 330 10 97 54 41 54 47 9 355 358 310 297 317 320 313 298 282
230 243 237 230 227 242 244 243 245 241 250 255 264 275 220 166 229 280 299 234 215 215 283 131 151 161 154 153 153 158 158 154 149 151 154 155 159 150 145 154 155 155 158 162 165 165 168 171 170 170 170 169 172 175 171 166 164 168 169 169 175 179 176 170 167 168 169 170 176 178 170 174 178 195 226 211 256 268 263 272 273 280 270 285 340 309 310 324 312 299 298 300 300 297 295 294 294
225 237 238 230 221 234 246 261 264 257 261 263 266 319 315 172 193 289 297 270 210 215 312 127 148 152 149 153 153 157 157 153 150 153 157 157 162 157 152 159 154 144 152 163 165 167 171 171 172 172 169 170 174 172 167 164 164 168 169 170 175 174 174 174 170 169 167 170 191 190 176 183 185 206 223 199 234 247 234 243 249 256 261 282 309 289 293 309 308 298 297 297 301 303 300 296 301
227 228 233 235 222 226 231 240 258 262 265 271 275 333 320 320 335 309 270 275 218 183 309 123 140 148 153 155 153 156 151 146 143 146 155 157 158 155 154 160 156 147 149 160 165 166 169 172 172 171 169 172 175 167 163 166 168 171 171 169 169 169 173 175 174 177 173 172 185 179 181 196 188 210 219 203 227 226 215 230 231 227 232 233 242 264 276 280 287 295 293 289 298 307 305 298 301
226 225 230 237 231 228 228 226 242 254 253 254 261 258 262 329 343 311 247 259 261 182 215 138 141 152 159 158 156 153 147 146 143 143 150 151 151 152 155 158 157 152 152 158 167 168 169 171 171 169 170 173 170 164 166 171 173 176 176 168 168 172 172 175 184 187 179 176 181 175 189 202 195 229 232 219 233 229 230 239 233 228 227 224 231 247 259 270 280 283 284 285 288 289 292 295 295
234 227 227 235 237 231 236 236 237 248 244 216 220 231 234 189 269 273 267 265 277 285 280 171 152 161 164 160 157 148 144 148 146 143 143 144 150 154 158 159 158 158 157 160 169 175 174 173 171 170 173 172 167 168 171 174 177 181 179 169 173 181 178 180 186 183 175 175 185 197 209 207 214 250 242 232 239 238 240 237 229 229 229 225 234 261 278 285 285 280 286 293 293 288 289 293 296
248 239 229 230 236 236 239 245 246 248 243 209 190 204 210 198 217 236 254 261 258 262 276 260 173 165 163 153 148 142 141 145 144 144 146 152 159 160 164 165 160 164 169 166 168 176 178 175 174 173 174 172 170 171 173 177 179 179 178 170 172 178 176 177 170 160 164 167 182 210 220 212 223 251 245 239 240 239 237 227 226 227 231 235 237 280 293 287 282 282 290 296 299 296 291 293 299
254 252 242 229 227 232 233 238 249 245 230 211 196 217 210 203 222 225 232 230 233 244 253 262 199 152 156 145 142 139 138 147 147 151 156 159 162 163 169 171 166 169 177 172 167 172 177 176 175 173 173 172 171 170 169 169 166 167 171 165 164 167 163 165 158 152 159 163 181 212 219 217 229 250 254 246 237 238 234 229 229 226 234 243 239 268 287 286 286 282 285 292 297 299 295 299 305
251 253 252 238 224 227 226 223 240 242 236 203 172 222 233 215 224 226 240 225 216 235 238 249 194 133 138 128 125 121 115 130 141 151 156 157 161 167 173 175 170 169 177 178 168 168 173 174 172 170 171 172 170 170 165 157 155 163 168 163 168 171 159 154 151 155 160 172 193 202 200 213 232 254 261 250 238 240 240 239 237 233 236 237 240 260 284 290 293 293 298 301 299 300 299 302 305
241 250 247 231 220 225 220 212 222 229 233 189 152 223 243 235 232 219 236 230 211 223 227 226 84 87 82 74 70 70 61 52 53 53 99 140 152 161 172 175 171 168 177 183 171 166 170 169 168 167 170 170 166 161 157 153 155 165 167 166 172 171 162 152 149 162 169 176 183 177 174 191 224 261 271 267 256 253 256 262 258 246 237 237 247 262 290 296 305 315 313 306 301 301 304 310 311
222 233 235 220 218 231 221 208 207 216 230 190 178 232 237 235 239 218 221 220 217 225 207 113 89 86 78 70 62 65 55 55 60 46 36 37 79 115 114 205 184 180 182 180 169 164 166 165 164 165 167 168 162 150 148 151 158 162 164 168 169 168 165 160 164 175 177 174 173 175 179 185 195 217 254 268 271 269 271 275 269 260 240 231 227 249 298 311 329 320 308 307 311 312 314 317 316
222 209 211 216 215 215 225 222 203 206 225 202 196 224 237 226 234 235 228 212 218 219 124 104 103 103 102 101 103 100 83 62 66 75 68 29 47 112 165 232 234 228 196 177 166 162 160 159 160 162 162 162 160 155 151 153 158 161 165 171 173 176 175 171 175 177 174 171 171 178 185 190 190 188 214 241 259 271 276 273 265 273 235 196 88 6 319 327 327 310 300 304 309 311 312 310 307
229 200 198 227 217 202 212 242 215 198 210 212 202 212 229 232 227 233 235 215 215 183 112 116 119 118 122 125 127 125 120 111 113 137 134 153 170 154 179 190 264 329 228 176 162 158 155 154 157 159 157 153 156 162 159 155 158 163 166 172 177 180 177 175 179 176 173 177 177 176 177 182 185 191 206 217 241 259 272 272 255 303 3 23 13 0 341 337 316 298 302 309 309 308 308 306 305
214 193 198 234 225 211 205 224 233 199 204 212 207 208 222 236 240 240 243 223 198 147 123 131 130 129 132 129 131 132 128 134 157 160 155 174 178 163 168 169 141 40 182 166 160 162 156 154 156 157 158 154 155 162 161 158 164 168 167 169 173 175 173 174 179 178 177 181 178 174 173 168 163 172 198 253 266 273 286 289 299 8 9 7 350 344 336 325 307 299 308 311 309 307 307 309 309
221 200 197 218 225 229 214 213 226 211 201 207 211 207 216 226 232 242 256 112 116 125 131 137 134 135 131 128 135 138 139 149 161 160 163 173 171 157 156 158 145 148 161 164 183 181 164 159 157 159 164 161 156 159 163 165 169 169 168 169 168 169 170 170 172 171 173 175 170 166 157 145 138 144 150 251 267 285 296 296 303 339 336 329 309 313 321 317 313 310 311 311 312 313 315 316 315
237 212 199 213 221 237 231 215 220 216 200 202 207 209 217 221 221 227 205 97 106 124 134 142 144 142 135 135 144 147 148 151 157 163 168 171 169 156 151 153 149 153 160 165 189 185 166 165 164 162 167 166 160 161 167 172 171 166 169 172 167 164 164 164 165 164 168 167 162 158 149 138 140 151 148 128 189 259 272 279 264 218 223 251 295 306 315 318 317 313 311 313 314 316 319 321 320
242 232 205 209 211 226 236 232 226 213 195 195 201 211 225 223 223 220 165 114 132 144 143 155 147 136 136 139 146 146 136 132 150 165 172 171 168 156 154 159 156 159 163 163 179 179 168 172 171 164 167 171 168 167 173 177 176 172 174 174 166 159 161 163 161 159 162 161 159 158 156 155 151 148 144 135 155 261 262 262 259 226 219 247 333 342 336 331 321 319 318 314 313 316 320 328 331
239 242 227 217 204 210 227 238 240 218 192 193 195 204 229 231 236 212 150 134 160 165 158 160 148 142 151 148 145 141 135 145 159 172 178 173 169 163 163 165 164 167 166 162 174 185 179 178 174 169 170 174 175 174 178 181 178 179 180 176 167 161 162 164 161 158 158 158 158 156 153 152 149 148 149 150 158 202 246 269 337 47 41 20 18 2 348 349 341 340 335 328 328 329 331 336 340
237 236 234 244 228 211 210 230 242 227 190 176 185 195 224 231 248 71 129 146 158 164 155 155 154 154 159 154 149 147 149 160 170 177 179 172 173 172 164 161 163 169 168 164 172 184 187 183 175 172 174 176 178 178 181 182 178 176 176 173 168 162 159 160 160 157 157 158 156 151 143 140 145 148 144 139 142 150 143 44 46 51 48 32 14 3 356 357 353 350 349 351 352 349 347 342 342
240 237 229 241 247 240 225 220 233 226 189 163 166 186 229 218 141 82 100 129 133 134 133 151 161 151 147 144 145 152 158 164 171 178 183 175 177 176 161 159 165 169 172 172 173 179 186 184 175 173 175 176 176 177 180 179 173 167 163 159 157 155 154 156 155 151 151 154 154 149 140 137 140 134 124 129 128 113 92 63 56 57 52 37 18 15 7 359 3 5 2 5 6 358 350 344 345
238 239 229 233 248 252 249 230 213 196 201 181 154 167 243 220 137 127 127 124 131 136 150 163 161 147 143 144 149 158 163 168 173 178 180 173 175 174 163 163 167 169 175 176 174 176 179 176 170 169 171 171 169 172 175 173 168 164 160 156 153 151 153 157 155 151 148 145 145 144 134 121 114 107 101 102 97 88 79 65 61 57 42 39 36 26 15 16 26 23 11 3 4 2 353 350 349
227 231 227 234 248 257 262 250 224 179 195 207 166 151 236 231 146 153 150 145 150 152 166 173 162 156 153 153 158 161 167 173 172 171 172 167 171 176 171 169 166 167 174 177 173 168 166 166 164 166 170 168 164 167 170 169 166 164 163 162 161 157 155 156 154 152 149 139 134 130 120 106 97 96 91 85 80 74 72 64 55 48 33 33 31 23 26 33 37 33 26 15 11 10 2 354 349
219 223 229 235 241 250 260 261 254 222 162 190 193 151 153 238 190 170 153 145 153 160 167 172 169 168 163 163 166 165 168 168 162 166 172 169 175 179 171 161 155 154 161 165 155 135 141 153 157 165 172 169 165 167 168 168 165 162 161 161 161 160 155 152 148 146 144 136 125 114 106 100 92 89 85 78 72 66 68 58 44 41 35 23 9 15 27 30 31 31 29 23 16 14 7 356 349
212 216 231 239 238 245 253 262 271 245 148 183 211 161 156 239 195 158 151 145 159 171 169 174 176 177 175 171 172 170 166 163 157 159 159 160 176 172 147 134 131 126 126 129 121 119 132 144 153 164 170 168 168 167 165 164 162 159 159 157 157 158 153 147 143 137 133 125 115 108 104 98 92 93 94 83 74 76 81 62 47 40 32 24 10 13 19 17 18 19 21 22 13 8 5 358 354
201 216 232 242 241 242 246 252 270 248 181 193 204 167 156 248 156 156 165 158 170 181 177 180 176 172 178 175 175 172 164 162 155 150 152 156 161 147 127 129 130 120 122 128 123 123 135 148 159 162 164 167 168 166 162 159 158 158 159 158 158 156 147 139 136 131 127 120 113 111 108 102 98 100 103 95 88 96 100 78 64 44 27 23 15 13 13 8 10 15 20 21 15 10 6 4 4
188 216 237 245 242 244 249 246 137 205 246 215 192 170 152 220 220 173 182 183 175 176 179 179 171 168 174 174 176 175 165 162 153 152 151 135 137 133 124 131 128 113 127 138 132 132 149 163 162 157 162 166 166 167 164 160 160 161 162 161 156 151 143 137 136 134 129 123 118 116 113 109 108 107 106 104 100 108 111 80 58 31 13 7 8 12 13 7 6 11 15 18 19 16 12 10 10
191 208 221 234 245 276 277 274 93 164 261 253 200 179 159 189 243 191 184 186 173 172 177 176 173 172 175 175 173 171 162 155 151 153 142 114 124 128 118 124 130 124 136 146 144 145 154 163 160 157 163 167 169 173 169 163 159 159 161 157 149 146 142 136 137 139 133 124 118 117 116 114 112 109 106 102 95 96 96 53 29 8 1 358 360 6 10 7 6 10 15 19 18 13 9 9 10
207 209 194 194 204 220 234 244 218 184 241 246 196 179 177 191 230 208 176 173 173 178 178 170 169 171 174 174 168 164 155 149 149 148 135 117 125 128 119 127 139 143 148 152 151 145 143 152 160 160 164 168 172 174 170 163 154 149 150 147 143 142 137 127 125 128 125 118 114 114 113 112 108 101 95 90 82 74 62 29 1 352 358 1 360 5 11 8 6 12 16 18 15 10 6 6 8
207 212 177 164 166 187 219 220 185 190 246 248 188 170 205 196 230 220 170 168 177 181 177 168 167 170 171 169 159 152 150 147 143 137 135 132 137 134 128 136 149 153 149 147 153 152 146 151 160 159 159 163 162 158 158 154 144 139 140 140 138 135 129 124 120 120 119 116 113 110 108 108 103 95 87 80 65 46 48 41 26 25 24 14 12 25 31 26 25 26 23 21 15 8 4 5 8
202 215 176 189 190 171 201 168 138 212 242 252 173 165 186 166 230 223 169 166 171 167 167 162 163 164 159 151 143 143 149 145 137 142 147 139 134 131 128 138 151 150 145 146 158 159 149 148 156 155 155 156 151 148 148 145 137 132 133 134 134 133 129 125 121 121 121 117 113 108 105 104 98 89 80 69 53 46 52 53 48 44 32 24 32 43 43 41 40 36 32 27 19 15 16 19 18
200 214 192 222 227 149 160 157 152 169 196 242 191 196 195 171 268 287 146 157 158 149 149 147 151 150 143 142 143 148 155 151 149 154 145 125 121 125 128 139 148 150 152 155 160 159 146 145 151 152 153 153 148 145 143 140 135 133 133 134 134 134 131 127 121 120 121 118 114 107 101 98 91 81 70 63 60 57 56 57 54 45 37 41 43 41 42 44 43 42 37 30 28 28 29 29 26
195 214 207 227 246 136 124 150 128 93 99 267 237 282 344 96 311 338 137 153 149 142 146 146 149 145 141 146 149 156 163 162 158 145 124 119 119 122 131 145 155 161 161 154 153 153 144 143 146 146 147 146 142 140 138 137 136 133 134 135 135 135 132 129 124 119 119 118 116 110 101 93 86 79 73 70 69 65 61 62 58 49 48 49 41 35 43 43 41 44 38 32 33 31 30 32 28
173 205 205 225 263 238 130 133 170 102 146 276 255 235 259 133 276 323 140 148 141 138 145 146 147 144 144 152 156 162 165 155 137 114 112 119 121 129 144 155 159 159 157 153 151 147 140 139 142 141 141 140 139 138 136 138 138 134 134 134 132 131 130 130 129 123 119 116 112 108 102 91 83 82 80 77 74 72 69 65 61 56 53 51 46 48 50 39 37 43 39 36 35 32 33 34 28
193 194 180 170 225 241 144 133 166 154 166 302 280 243 227 157 200 149 132 149 147 140 144 145 147 147 148 154 157 157 150 133 118 115 119 122 129 145 155 155 151 149 154 155 146 137 135 138 140 140 139 139 138 138 137 138 137 135 133 131 129 127 126 126 127 123 117 110 104 101 99 93 86 87 88 89 91 86 77 70 65 62 64 67 66 63 56 46 43 45 42 39 36 36 40 38 32
251 211 193 204 205 184 147 147 164 155 162 240 271 247 244 216 192 149 140 154 148 142 149 150 150 152 154 156 157 153 139 129 128 127 128 130 140 153 154 148 146 146 151 149 137 132 135 139 140 138 136 135 136 136 136 134 133 132 129 127 127 127 126 124 120 116 110 104 103 105 103 99 97 100 102 102 102 93 82 76 73 73 75 76 74 72 68 63 55 49 45 42 40 42 45 40 34
236 210 192 207 211 160 156 194 189 148 149 181 200 239 260 273 252 160 155 154 149 150 155 155 152 154 159 162 157 148 135 132 134 130 130 136 142 148 147 144 144 145 145 141 133 132 135 137 138 137 134 134 134 133 133 132 132 133 130 128 128 128 127 122 116 111 107 106 110 113 113 109 104 106 111 106 98 91 86 83 80 78 73 66 71 76 77 76 66 55 49 45 43 44 44 39 33
208 201 189 190 179 149 143 246 246 163 142 167 168 223 264 275 313 254 168 151 150 153 153 154 155 155 162 166 154 142 136 136 137 132 131 138 143 145 141 138 142 144 141 136 132 131 134 136 137 137 135 135 135 134 134 134 132 130 127 126 126 126 125 122 116 110 106 108 109 110 117 118 107 105 109 103 92 89 91 89 80 70 62 62 72 80 81 79 69 59 53 47 45 45 43 39 36
Height
776 777 775 775 772 772 772 771 794 795 793 809 800 797 785 765 762 759 756 749 750 746 733 736 735 738 750 762 768 767 770 776 784 795 800 785 775 778 778 780 783 785 789 791 794 796 797 798 799 799 801 803 804 805 806 808 809 811 812 814 814 815 816 817 818 819 819 820 822 822 823 824 824 825 825 826 827 827 828 828 829 829 830 831 831 831 831 831 832 832 831 831 831 831 831 831 831
776 777 774 775 771 776 778 774 803 807 803 815 800 792 780 763 764 763 759 755 755 743 731 734 735 739 746 753 756 764 774 769 767 774 778 775 776 780 779 781 782 784 787 790 793 795 797 798 799 799 801 802 804 805 806 808 809 811 812 813 814 815 816 818 818 819 820 821 822 823 824 824 825 825 826 827 827 828 829 829 830 830 831 831 832 832 832 832 832 832 832 832 832 832 831 831 831
777 777 775 776 772 774 779 781 805 813 815 821 803 785 772 770 768 761 757 752 746 735 732 735 737 741 746 757 757 766 779 769 762 767 772 774 776 781 781 780 782 784 786 789 793 794 796 797 798 799 800 802 803 805 806 808 809 810 812 813 815 816 817 818 818 819 820 821 822 823 824 825 825 826 827 827 828 829 829 830 830 831 831 832 832 833 833 833 833 833 833 833 832 832 832 832 832
777 778 776 777 779 780 786 795 803 810 818 816 804 783 770 772 764 757 753 746 740 735 737 739 744 738 742 763 761 765 776 769 762 762 769 773 773 779 780 781 783 784 786 789 792 794 795 797 798 799 800 802 803 805 806 808 809 810 812 813 815 816 817 818 819 820 820 821 822 824 824 825 826 826 827 828 829 829 830 830 831 831 832 832 833 833 834 834 834 834 833 833 833 833 833 832 832
777 778 777 778 787 787 790 800 800 807 813 806 801 784 768 766 760 757 751 746 741 738 739 741 750 740 741 756 756 765 770 766 763 759 765 771 773 777 779 781 782 783 787 789 791 793 794 796 797 798 800 801 803 804 806 807 809 810 812 813 814 816 817 818 819 820 821 822 823 824 825 826 826 827 828 828 829 829 830 831 831 832 832 832 833 834 834 834 834 834 834 834 834 833 833 833 833
777 777 775 777 783 782 793 806 805 807 802 793 795 782 767 761 758 756 751 749 741 737 738 741 748 746 752 752 749 757 756 758 762 760 762 768 773 775 778 780 782 783 785 788 790 792 794 796 797 798 799 801 802 804 805 807 809 810 812 813 814 816 817 818 819 820 821 822 823 824 825 826 827 828 828 829 830 830 831 831 832 832 832 833 833 834 834 834 834 834 834 834 834 834 834 833 833
778 780 777 782 784 783 801 810 806 806 793 784 786 778 767 758 756 755 752 752 747 741 738 740 740 748 761 753 753 754 748 752 755 758 761 765 771 773 777 779 781 783 784 787 789 791 793 795 797 798 799 800 802 804 805 807 809 810 812 813 814 816 817 819 820 821 822 822 823 824 826 827 827 828 829 829 830 831 831 832 832 832 833 833 834 834 834 835 835 835 835 835 835 834 834 834 834
779 783 780 788 795 792 802 806 802 800 788 778 775 771 765 756 752 754 753 751 751 746 741 740 734 751 763 750 760 757 748 753 752 758 761 764 770 772 776 777 779 782 784 785 787 790 791 794 796 798 799 800 801 803 805 807 809 810 812 813 815 816 818 819 820 821 822 823 824 825 826 827 828 829 829 830 830 831 832 832 832 833 833 833 834 834 834 835 835 835 835 835 835 835 835 835 835
778 783 783 791 800 798 801 802 798 792 783 776 771 766 760 753 750 753 754 748 746 744 741 738 734 754 764 754 763 756 750 755 755 761 763 767 769 771 775 774 777 780 783 784 786 789 790 793 795 797 798 800 801 803 805 807 808 810 812 813 815 817 818 820 821 822 823 824 824 825 827 827 828 829 830 830 831 831 832 832 832 833 833 833 834 834 834 835 835 835 836 836 836 835 836 835 835
778 781 785 792 799 804 806 802 795 787 780 774 769 762 757 753 749 750 752 748 742 741 738 732 735 752 762 764 767 758 755 755 756 764 766 769 770 773 774 774 776 778 783 784 786 788 790 793 794 797 798 800 801 803 805 806 809 810 812 814 816 817 819 820 821 823 823 824 825 826 827 828 829 829 830 830 831 831 831 832 832 833 833 833 833 834 834 835 835 836 836 836 836 836 836 836 836
784 780 782 794 802 807 807 801 793 785 777 770 766 758 753 750 749 748 746 746 740 739 736 732 742 753 760 767 768 760 758 758 758 764 767 769 771 772 773 775 777 778 782 783 786 788 790 793 794 797 797 800 801 802 805 806 809 810 812 814 816 818 819 821 822 823 824 825 826 827 828 828 829 829 830 830 831 831 831 832 832 832 832 833 833 834 834 835 835 836 836 836 836 836 836 836 836
788 783 784 798 803 801 798 796 790 783 775 771 768 756 749 747 750 749 746 747 739 738 737 734 739 747 764 772 768 761 760 763 761 763 766 768 769 771 773 776 777 779 783 784 786 788 791 793 795 797 798 800 801 803 805 807 809 810 813 815 817 819 820 821 822 824 825 826 827 828 828 829 830 830 830 831 831 831 831 831 831 832 832 833 833 833 834 835 835 836 836 836 837 837 837 837 837
785 783 787 796 793 792 791 790 786 782 778 771 766 753 746 747 750 747 745 744 739 742 737 729 729 740 767 773 767 765 763 765 762 764 765 767 769 770 773 776 778 780 783 785 787 789 792 794 796 798 799 800 801 803 805 807 810 811 814 815 817 819 820 822 823 825 825 826 827 828 829 829 830 830 831 831 831 831 831 831 831 832 832 832 832 833 834 834 835 836 836 837 837 837 837 837 837
778 777 784 790 785 785 786 785 783 783 779 767 759 750 745 745 743 739 740 744 741 740 731 722 725 744 767 771 772 770 766 766 764 765 765 768 770 771 775 777 779 782 784 786 788 791 793 796 798 799 800 801 803 804 806 808 810 812 814 816 818 819 821 823 824 825 826 827 828 829 829 830 830 830 831 831 831 831 831 832 831 832 831 832 832 833 834 834 835 836 837 837 837 837 837 837 838
773 773 779 786 785 784 780 780 779 780 775 761 753 747 745 740 734 735 736 742 740 728 723 722 723 743 761 765 772 767 763 766 765 766 767 770 772 774 777 778 781 783 786 788 789 792 795 798 799 800 801 802 804 805 807 809 811 813 815 817 818 820 822 823 824 826 827 828 828 829 830 830 831 831 831 832 832 832 832 832 832 832 832 832 832 833 834 835 835 836 837 837 837 837 837 838 838
766 770 779 786 786 785 778 774 774 776 769 755 747 741 745 738 729 734 729 730 734 723 723 728 722 732 746 749 755 757 760 766 767 768 769 773 775 777 780 781 785 786 788 789 791 794 796 799 800 801 802 803 805 806 808 810 812 814 815 818 819 821 822 824 825 826 827 828 829 830 830 830 831 831 832 832 833 833 833 833 833 832 832 832 832 833 834 835 835 836 837 837 838 838 838 838 838
762 770 782 786 784 783 775 771 771 771 763 751 744 738 746 742 729 729 720 721 732 729 727 729 723 725 736 739 742 749 758 763 767 770 771 775 777 780 783 785 787 788 790 791 792 794 796 799 800 802 803 804 806 807 809 810 813 815 816 818 820 822 823 825 826 827 828 829 830 830 830 831 831 832 832 833 833 833 833 833 833 833 833 833 833 833 834 835 835 836 837 837 838 838 838 838 838
765 773 783 784 780 774 767 765 761 759 757 750 743 737 743 743 734 727 723 727 731 733 731 730 731 729 731 736 741 748 756 761 764 768 771 775 777 780 784 786 787 789 791 792 793 794 796 799 800 802 803 805 807 808 810 811 814 815 817 819 821 822 823 825 826 827 828 828 830 830 830 831 831 832 832 833 834 834 834 834 834 834 834 834 834 834 835 835 836 836 837 837 838 838 838 838 838
764 770 777 775 768 763 756 755 752 751 752 747 741 736 737 737 732 727 732 738 733 737 738 737 744 742 737 740 745 750 754 759 763 767 771 774 778 781 783 786 787 788 790 791 794 795 796 799 801 802 803 805 807 809 810 812 814 815 818 819 821 823 824 825 826 827 828 828 829 829 830 831 831 832 833 833 834 834 834 834 834 834 834 834 834 834 835 836 836 837 837 837 838 838 838 838 838
760 764 772 765 757 757 751 749 748 745 744 743 740 735 734 732 727 727 734 739 736 741 741 744 753 749 745 745 745 750 754 759 763 767 771 775 778 779 780 782 784 787 789 791 794 796 797 800 802 803 804 806 807 809 811 813 815 816 818 820 821 823 824 825 826 827 828 828 829 829 830 831 832 832 832 833 833 834 834 834 835 835 835 835 835 835 835 836 836 837 837 837 837 837 837 837 838
756 757 762 754 751 755 750 745 744 740 739 740 738 735 736 729 724 728 734 741 743 740 735 741 750 747 746 746 745 749 753 758 762 766 771 773 775 775 777 780 783 787 790 792 794 796 798 800 802 804 805 806 807 809 811 813 815 817 819 820 822 823 824 824 825 827 827 828 829 829 830 831 832 832 833 833 833 834 834 835 835 835 836 836 836 836 836 836 836 837 837 837 837 837 837 837 837
755 751 749 747 748 752 745 741 740 737 736 737 737 738 737 729 727 729 733 744 744 735 729 733 741 741 742 743 745 748 752 756 760 764 767 769 771 774 779 782 785 789 792 793 794 796 798 800 801 803 805 806 808 809 811 814 815 817 819 820 822 823 823 824 825 826 827 828 828 829 830 831 832 833 833 833 834 834 834 835 835 836 836 836 836 836 836 836 836 837 837 837 837 837 837 837 836
755 751 744 744 745 746 741 737 736 734 735 736 736 734 730 731 734 730 731 738 734 726 724 728 733 735 736 739 744 748 752 756 757 760 762 766 769 773 777 780 783 789 793 794 795 797 797 799 801 802 804 806 808 810 812 814 816 818 819 820 821 822 822 823 824 825 827 827 828 829 830 831 832 833 834 834 834 834 835 835 835 836 835 836 836 836 836 836 836 836 837 837 837 837 837 837 836
752 751 744 741 740 740 738 736 733 732 735 734 731 731 730 735 736 731 731 732 726 722 721 725 731 735 738 741 745 749 752 755 757 760 762 765 769 772 775 778 781 785 793 798 798 799 799 799 800 802 804 806 807 810 812 814 816 818 819 820 820 821 822 823 824 825 826 827 828 830 831 832 833 834 834 834 834 834 835 835 835 835 835 836 836 836 836 836 837 836 837 837 837 837 836 836 836
746 746 742 738 737 735 734 735 732 730 732 730 728 732 733 733 732 733 733 729 724 722 722 726 731 737 741 743 746 750 754 757 759 762 766 768 771 774 777 780 782 784 790 799 802 801 800 800 801 802 804 805 807 809 812 813 815 817 818 819 820 821 821 822 823 825 826 828 829 830 831 833 833 834 834 835 835 835 836 836 836 836 836 836 837 837 836 837 837 837 837 837 836 836 836 836 836
740 740 740 737 736 732 732 733 730 729 729 728 730 733 731 728 730 735 732 727 725 722 724 729 733 739 742 744 746 749 753 758 761 764 768 771 772 775 777 780 784 786 787 794 802 803 801 801 801 803 804 805 806 808 810 812 815 817 817 819 819 820 821 822 823 825 826 828 829 830 832 833 833 834 834 835 835 836 836 836 836 836 836 836 837 837 837 837 837 837 837 836 836 835 835 835 835
735 735 736 734 733 730 729 731 728 727 727 727 732 734 730 726 733 740 731 725 725 725 728 731 735 739 740 743 746 749 753 757 760 764 769 772 773 775 777 779 783 787 786 786 794 800 801 801 801 802 803 804 805 807 810 813 815 817 818 819 820 820 821 822 823 825 826 827 829 830 831 832 833 834 834 835 835 836 836 836 836 835 836 836 836 836 836 836 836 837 836 836 836 835 835 835 835
732 733 735 732 731 729 728 728 727 727 726 724 728 733 730 728 735 738 730 725 725 727 730 730 735 738 738 743 747 751 755 758 762 765 768 770 771 773 775 777 780 784 784 780 783 793 798 799 801 802 802 803 805 808 811 813 816 818 819 820 821 821 822 822 823 824 826 827 828 829 831 832 833 834 834 835 835 835 835 835 835 835 835 835 835 835 835 836 836 836 836 836 835 835 835 834 834
732 731 737 735 731 731 727 726 726 727 727 719 724 738 738 734 735 731 727 726 725 728 731 730 733 737 739 743 749 754 757 760 762 764 766 767 769 771 773 775 777 779 783 781 779 786 794 797 800 801 802 803 805 808 811 813 815 817 819 820 820 821 821 821 822 824 825 826 827 828 830 831 833 834 834 835 835 835 835 835 834 834 834 834 834 835 835 835 836 836 836 836 835 835 835 834 834
732 730 736 738 738 735 725 724 725 726 726 716 725 748 747 735 731 727 725 725 727 731 733 732 734 738 742 747 752 758 763 765 765 766 766 767 769 771 773 776 778 780 784 786 781 783 791 795 798 800 801 802 804 807 809 811 814 816 817 818 819 819 819 820 821 823 824 825 826 826 828 830 833 834 835 835 835 835 835 835 834 834 834 834 834 834 834 835 835 835 835 835 835 835 835 834 834
733 734 735 737 745 740 724 722 725 728 725 715 728 750 748 736 729 725 724 724 728 732 733 735 741 747 752 756 762 768 771 772 772 773 773 773 774 776 779 781 781 782 784 786 784 784 789 793 795 797 799 801 803 806 808 810 813 814 815 816 817 818 818 819 820 822 822 823 824 824 825 827 831 835 837 837 836 836 836 835 834 834 833 833 833 833 834 834 834 834 834 835 835 835 835 834 834
733 741 744 738 743 741 725 719 722 728 726 717 729 747 744 735 728 723 721 722 726 729 733 741 748 754 758 762 768 774 775 774 774 776 780 782 781 780 785 789 787 786 785 786 785 785 789 791 794 796 798 800 802 805 806 809 811 812 814 815 816 817 817 818 819 819 820 822 823 824 822 822 825 830 835 838 838 837 836 835 834 833 833 833 833 833 833 834 834 834 834 835 835 835 835 834 834
734 739 747 742 741 742 732 721 717 722 726 722 728 740 740 733 726 720 718 720 723 728 739 747 751 753 757 761 765 769 774 776 775 775 779 783 784 782 785 791 793 792 790 789 786 786 789 791 794 796 797 799 801 803 805 807 810 811 813 814 815 815 816 817 817 818 819 820 822 823 823 822 824 826 830 833 836 837 837 836 835 834 834 834 833 833 833 833 834 834 835 835 835 834 834 834 834
741 737 743 740 737 740 738 728 717 717 725 727 726 732 735 729 722 719 717 718 721 731 744 748 748 750 752 756 760 763 769 774 775 773 775 779 781 782 781 786 791 794 796 794 791 792 792 792 794 796 797 798 799 801 803 806 808 811 812 813 813 814 815 816 816 817 818 819 819 821 822 823 825 827 830 832 834 836 837 836 835 834 833 832 831 831 832 833 834 834 835 835 835 834 834 834 834
745 740 743 742 736 735 736 731 720 716 723 727 728 731 731 726 721 718 716 716 722 733 743 744 744 746 749 753 758 761 765 768 770 770 771 773 777 780 779 782 786 792 798 799 799 800 799 796 795 795 796 796 798 800 803 805 807 809 811 811 812 813 814 815 816 817 818 818 819 821 822 824 827 830 833 836 836 837 838 838 835 833 831 831 831 832 833 833 834 834 834 834 834 834 834 834 834
737 735 738 742 739 734 729 725 718 714 723 726 727 731 730 725 722 718 716 719 729 738 740 742 745 745 749 753 757 761 762 763 765 766 767 767 771 776 778 780 782 787 795 800 803 805 803 801 798 796 796 797 798 800 802 804 806 808 810 811 811 812 813 814 815 817 817 818 820 821 824 825 828 830 834 837 838 839 841 841 838 834 833 832 833 833 833 834 834 834 834 834 834 834 834 833 833
728 729 733 735 736 734 723 719 713 708 720 725 722 727 726 723 720 716 719 727 737 743 743 744 745 745 748 752 756 759 760 761 762 763 765 765 767 772 775 778 780 783 790 796 802 806 805 803 799 796 797 798 799 799 800 802 804 806 808 809 810 811 812 813 814 816 816 818 820 821 823 825 826 827 830 832 836 841 843 842 839 836 834 834 833 833 834 834 834 834 834 834 833 833 833 832 832
727 728 729 730 732 729 719 715 709 703 715 723 719 723 724 719 717 714 719 730 738 741 744 746 747 747 749 750 755 758 759 762 763 763 764 764 766 769 772 776 778 779 783 790 800 806 806 803 800 798 799 799 798 798 799 801 803 805 806 807 808 810 811 812 813 814 815 817 818 820 821 823 824 824 826 828 833 838 841 839 838 835 834 833 833 834 834 834 834 834 834 833 833 833 832 832 832
728 728 729 731 727 723 720 712 705 701 711 721 719 722 723 716 712 713 718 728 733 732 733 738 743 747 749 749 752 757 760 762 762 762 761 762 765 766 768 772 775 777 779 785 796 804 805 803 801 799 799 798 798 798 799 801 803 805 805 806 807 808 809 811 812 812 814 816 817 819 821 822 823 824 826 827 830 834 837 838 836 833 833 833 833 834 834 834 834 834 833 833 832 832 832 832 832
727 728 732 733 723 723 726 714 705 701 704 713 716 721 722 714 716 723 723 724 729 730 732 735 735 738 741 742 746 751 756 759 760 759 758 758 762 764 766 769 773 777 779 783 791 797 800 801 800 799 798 798 798 799 800 801 802 804 805 805 806 807 808 810 811 812 814 815 817 818 820 821 822 823 824 826 828 832 835 834 833 831 831 832 833 834 834 834 834 833 833 833 832 832 832 831 831
727 723 727 729 721 720 719 709 703 701 700 702 712 729 728 716 726 737 731 727 730 735 739 741 738 735 737 740 744 747 750 753 756 756 755 754 758 762 763 767 770 774 778 781 783 788 794 799 798 798 799 800 800 800 800 800 801 803 804 805 807 807 808 809 810 812 813 814 816 817 818 819 820 820 822 824 826 829 831 830 829 829 831 832 833 834 834 834 833 833 833 832 832 832 832 831 831
730 719 717 718 716 715 712 704 703 713 717 703 708 741 740 718 730 743 736 736 738 740 743 745 743 739 739 742 745 747 748 749 750 751 751 752 756 761 762 765 768 771 774 777 780 784 792 797 798 799 801 801 801 801 801 801 802 803 803 804 806 807 808 809 810 811 812 813 814 816 817 818 819 820 822 824 825 826 826 826 826 828 830 832 833 834 834 833 833 833 832 832 832 832 831 831 830
732 716 708 712 712 713 713 707 708 721 726 707 701 731 740 725 733 742 736 740 744 743 746 745 743 740 738 740 742 745 747 748 749 751 751 753 757 761 763 764 768 772 774 778 782 787 793 796 797 799 801 801 802 802 802 803 802 803 804 804 805 806 807 809 810 811 811 812 814 815 816 818 819 821 822 822 821 821 822 823 826 829 831 832 833 833 833 833 832 832 832 831 831 831 831 830 830
727 709 705 710 710 712 714 711 713 712 712 708 700 711 731 731 732 735 733 741 747 746 748 746 742 740 737 738 739 741 744 745 748 751 753 755 758 761 763 765 769 774 777 781 786 791 795 797 797 799 801 801 802 803 803 804 803 804 804 805 806 807 807 809 810 811 811 812 813 814 816 817 818 818 818 818 819 820 823 825 828 830 831 833 833 833 833 832 831 831 831 831 831 831 830 830 829
715 704 704 706 706 708 708 711 716 707 707 722 712 705 728 734 729 734 733 739 749 746 745 745 741 740 739 738 739 739 741 743 745 749 753 756 760 762 764 766 771 776 780 786 789 792 795 798 799 799 801 802 802 803 804 804 805 804 805 805 806 807 808 809 811 811 812 813 813 815 815 816 816 818 819 820 822 824 826 828 829 831 832 833 833 832 832 831 830 830 830 830 830 830 830 829 828
704 701 702 702 702 703 704 710 716 712 715 729 718 708 729 736 730 740 742 740 746 742 739 740 737 739 739 739 740 740 741 743 745 748 752 756 759 763 765 767 772 777 780 786 790 792 795 798 800 801 802 803 804 804 804 805 805 805 805 806 806 807 809 810 811 812 813 813 814 815 816 817 819 821 822 824 825 826 828 829 830 831 832 833 833 832 831 830 830 830 830 829 829 829 829 828 828
698 702 706 705 704 701 705 707 710 723 730 724 712 704 720 735 729 733 737 731 731 732 735 737 735 737 738 738 739 740 741 743 745 748 751 755 759 763 765 769 775 778 779 783 786 790 794 796 799 802 804 806 806 806 805 805 806 806 806 807 807 808 810 811 812 813 814 814 815 816 817 819 821 823 824 825 826 827 828 829 830 831 832 832 832 831 831 830 830 830 829 829 828 828 828 827 827
697 704 709 714 714 710 715 714 714 735 740 719 703 696 712 733 724 715 717 714 715 721 726 730 733 734 735 736 737 738 741 743 745 748 752 755 759 763 767 771 775 777 778 780 782 784 789 795 799 802 805 806 807 807 807 807 808 808 808 808 808 809 811 812 813 813 814 815 816 817 818 820 822 823 824 825 826 827 828 829 831 831 832 832 831 831 831 830 830 830 829 828 828 827 827 827 826
698 703 712 724 729 729 734 732 729 739 733 709 697 698 712 723 708 697 703 706 709 711 711 717 724 728 731 732 735 737 740 743 745 748 752 755 759 763 767 771 774 775 775 778 781 783 787 794 798 800 802 805 806 807 808 809 809 809 809 809 809 810 812 813 813 814 815 815 815 816 817 819 821 822 823 824 825 827 828 829 830 831 831 831 830 831 830 830 830 829 828 828 828 827 827 827 827
701 703 712 726 733 741 748 743 738 737 725 702 692 700 715 716 698 688 694 698 699 701 702 707 713 718 724 728 732 737 739 742 744 747 751 754 758 762 766 770 772 773 774 777 782 783 784 790 796 798 801 803 805 807 808 809 810 810 809 809 810 811 812 813 813 813 814 815 815 815 816 818 820 822 823 824 826 827 828 829 829 830 830 830 830 831 830 830 830 829 829 828 828 828 828 827 827
697 693 702 716 719 730 742 739 737 735 723 705 698 707 716 712 697 683 685 690 692 697 702 706 711 715 721 727 732 736 739 742 744 747 750 753 758 762 766 770 772 774 776 778 781 782 781 786 793 797 801 803 805 807 808 809 809 810 810 810 811 812 812 813 813 813 814 814 814 814 816 818 820 822 823 825 826 827 828 829 829 830 830 830 831 831 831 830 830 829 829 829 828 828 828 827 827
695 687 699 711 704 707 720 724 722 724 724 715 708 708 703 696 688 678 682 691 692 698 705 711 717 720 723 729 733 736 739 741 742 745 750 756 761 764 767 771 774 776 777 778 781 784 782 786 793 797 801 804 806 807 808 808 809 809 810 811 812 812 813 813 813 813 813 813 814 815 817 819 820 822 823 825 826 827 829 830 830 831 831 831 831 831 831 831 830 830 829 829 829 829 829 828 828
695 695 703 700 689 693 709 719 716 720 732 725 710 709 702 697 694 683 685 696 697 701 707 712 717 720 724 730 732 735 737 738 741 746 753 758 761 764 767 771 773 774 776 779 783 786 784 787 793 798 802 805 807 808 808 809 809 810 811 812 812 813 813 814 814 813 813 813 814 815 817 818 820 821 823 825 827 828 830 831 831 831 831 832 832 832 832 831 831 830 830 831 831 830 830 829 828
693 701 698 689 689 693 701 718 726 730 741 730 712 715 716 714 710 695 691 700 704 706 708 713 718 720 725 728 730 733 734 738 744 750 755 758 760 763 766 769 772 774 777 780 783 784 785 789 794 799 802 805 807 808 809 809 810 811 812 812 813 813 814 815 814 813 813 813 814 815 816 818 820 821 823 826 828 829 831 831 832 832 832 832 832 832 832 832 832 832 832 832 832 832 831 830 829
684 690 685 690 707 711 705 717 731 738 746 737 719 717 717 714 709 701 700 704 706 709 711 715 719 721 724 727 729 732 736 742 748 752 756 758 760 763 765 769 772 775 779 782 781 782 785 791 796 799 802 805 807 808 809 810 811 812 813 813 813 813 814 815 814 814 813 813 814 815 817 819 821 823 825 827 829 830 831 832 832 832 832 832 832 832 833 833 833 834 834 834 833 833 831 831 830
681 683 682 687 699 706 705 709 719 731 743 742 731 724 716 707 698 694 699 702 703 710 714 715 718 720 722 725 729 734 739 745 749 752 756 758 761 764 766 770 772 774 780 782 780 781 787 792 797 800 802 804 807 809 810 812 813 813 814 814 813 814 814 815 814 814 813 814 814 816 818 821 823 825 826 828 829 831 832 832 832 832 832 832 832 832 833 834 835 835 835 835 834 833 832 832 831
691 692 692 692 692 694 699 702 705 715 732 739 738 735 718 700 693 689 689 695 700 705 711 713 715 718 720 722 726 733 740 745 748 751 755 758 761 764 766 770 772 775 780 780 778 781 788 794 797 800 802 804 807 809 811 813 814 814 814 814 814 814 814 814 814 814 814 814 816 817 820 822 824 826 828 829 830 832 832 832 832 832 832 832 833 833 834 835 836 836 836 836 835 834 833 833 832
688 691 691 692 692 695 708 716 705 702 716 724 730 735 719 699 695 690 683 688 694 698 705 712 714 717 719 721 725 732 739 744 747 750 754 757 760 764 767 770 773 776 778 779 779 782 789 795 798 800 802 805 808 810 812 813 814 814 814 814 815 815 815 815 815 815 815 816 817 819 821 823 825 827 828 830 831 832 832 832 832 833 833 833 833 834 835 836 837 837 837 837 836 835 834 834 833